OPS 5798 DEB, 903

Orbit data source: Space-Track

OPS 5798 DEB, 903 is space debris in LEO originally from a launch on Tue, 06 Oct 1964 UTC launched from the Air Force Western Test Range (AFWTR). Debris objects in space refer to the collection of defunct objects orbiting the Earth. Examples of debris include non-operational satellites, rocket bodies, and fragments generated from explosions, collisions, or faulty payload assembly.

Loading next visibility...
Identifier
903, 1964-063F
Orbit
LEO
Country
Flag of USUS
Related business
Manufacturer
Unknown
Mission
Spacecraft
Bus & Motor
Unknown
Mass
Unknown
Launch date (UTC)
1964-10-06 (61 years ago)
Launch vehicle
Unknown
Launch site
Air Force Western Test Range (AFWTR)
Object type
Payload
Rocket body
Debris
Shape & HBR
Unknown
Radar Cross Section
Small (<0.1 m²)

Expand to show TLE details & history
Last TLE update: 2 days ago

TLE from 2 days ago
0 OPS 5798 DEB
1 00903U 64063F   25259.98311139  .00000755  00000-0  71455-3 0  9991
2 00903  90.2163  64.6724 0021719 215.4445 272.9522 13.80211264 36678
Epoch: 2025-09-16T23:35Z
TLE epoch observation values (Epoch: 2025-09-16T23:35:40.824Z)
Latitude
51.94706°
Longitude
-105.1384°
Altitude
970.844 km
Speed
7.372 km/s
True Right ascension
16h 19m 47s
True Declination
51° 47' 05"
Sunlit
Object was in daylight at epoch
Visualization orbit readout
Latitude
Unknown
Longitude
Unknown
Altitude
Unknown
Speed
Unknown
Apparent Right ascension
Unknown
Apparent Declination
Unknown
Sunlit
N/A
Visualization observer readout
Local Sidereal Time
12:36:12
Azimuth
Unknown
Elevation
Unknown
Doppler factor
Unknown
Orbital elements
Apogee altitude
976.081 km
Perigee altitude
944.205 km
Semi-major axis
7,338.28 km
Eccentricity
0.00217
Inclination
90.2163°
RAAN
64.6724°
Arg. of periapsis
215.4445°
True anomaly
272.70361°
Mean anomaly
272.9522°
Eccentric anomaly
272.82791°
Mean motion
3.45264 °/min
Orbital period
104.27 mins
BSTAR
0.00071455
Loading maneuver chart data...
Computing Atmospheric mass density...
Loading historical data...
Loading historical data...
Loading historical data...
Loading historical data...
Loading historical data...
Loading historical data...
Loading historical data...

Documentation

Showing up to 5 results
|